Location: 22
(39.7117°N, 89.5929°W)
Time: 19:22:41
(UTC-05:00)

Vanguard 3 - Pass Details

Date: 06 February 2023
Orbit: 508 x 3249 km, 33.4° (Epoch: 30 March)

Event Time Altitude Azimuth Distance (km) Brightness Sun altitude
Rises 17:52:55 0° 238° (WSW) 3,584 12.2 -6.1°
Reaches altitude 10° 17:55:05 10° 232° (SW) 2,888 11.2 -6.6°
Maximum altitude 18:02:03 50° 159° (SSE) 1,885 9.0 -7.8°
Enters shadow 18:14:12 10° 90° (E) 4,939 10.5 -10.1°
Drops below altitude 10° 18:14:18 10° 90° (E) 4,970 - -10.1°
Sets 18:19:17 0° 86° (E) 6,390 - -11.1°
